sat.trackr.live / text

‹ back to catalog

STARLINK-34732

NORAD 64955 · 2025-158Z

PAYLOAD ACTIVE UNKNOWN

§ Identity

Operator
Country
US
Launch date
2025-07-27
Launch site
AFWTR
Launch vehicle
Mass (kg)
RCS (m²)

Purposes: comms

External: N2YO · Heavens-Above · Gunter

§ Orbital elements

Epoch: 2026-05-25T02:17:20.261760Z

Period
95.64 min
Inclination
97.4540°
Eccentricity
0.0002240
Mean motion
15.05657206 rev/d
Perigee alt
547.9 km
Apogee alt
551.0 km
Semi-major
6,927.6 km
B*
2.3488e-4
RAAN
9.0375°
Arg perigee
85.0286°
Mean anomaly
275.1197°
Rev number
4,685

§ Raw data

STARLINK-347321 64955U 25158Z   26145.09537340  .00003333  00000+0  23488-3 0  99982 64955  97.4540   9.0375 0002240  85.0286 275.1197 15.05657206 46853

JSON: /api/v1/satellites/64955 · /tle

For live sub-satellite position, see the globe view (requires WebGL).

§ Visibility from observer

Set your observer location to see the next 7 days of passes ≥ 10°. The values pass through the URL so the page stays shareable.

No JS? Fill the form by hand. The geolocation button needs JavaScript.